Regional Weather Roundup
Issued by NWS Albany, NY

Home | Current Version | Previous Version | Graphics & Text | Print | Product List | Glossary Off
Versions: 1 2 3 4 5 6 7 8 9 10 11 12 13 14 15 16 17 18 19 20 21 22 23 24 25 26 27 28

000
ASUS41 KALY 231710
RWRALY

NEW YORK STATE HOURLY WEATHER ROUNDUP
NATIONAL WEATHER SERVICE ALBANY NY
100 PM EDT TUE MAY 23 2017

NOTE: "FAIR" INDICATES FEW OR NO CLOUDS BELOW 12,000 FEET WITH NO
SIGNIFICANT WEATHER AND/OR NO OBSTRUCTIONS TO VISIBILITY.

NYZ032-033-038>043-046>054-057>066-NYZ062>081-082-084-231800-
EAST


CITY           SKY/WX    TMP DP  RH WIND       PRES   REMARKS
ALBANY         CLOUDY    67  46  47 CALM      29.92F
GLENS FALLS    NOT AVBL
POUGHKEEPSIE   PTSUNNY   66  48  52 MISG      29.91F
NEWBURGH       PTSUNNY   64  52  63 NW7       29.94F
MONTGOMERY     CLOUDY    65  51  60 NE5       29.92F
WHITE PLAINS   MOSUNNY   67  48  50 N8        29.91F
ISLIP          CLOUDY    66  47  50 N10       29.91S
NEW YORK CITY  CLOUDY    66  48  52 NE5       29.92F
CENTRAL PARK   CLOUDY    65  48  54 N7        29.95F
$$

NYZ005>009-017-018-044>046-055-056-231800-
CENTRAL


CITY           SKY/WX    TMP DP  RH WIND       PRES   REMARKS
FULTON         PTSUNNY   69  49  48 SW9       29.89F
SYRACUSE       CLOUDY    67  49  52 CALM      29.89F
ROME           CLOUDY    66  52  60 NW6       29.91F
ELMIRA         MOSUNNY   69  46  43 VRB5      29.91F
BINGHAMTON     MOSUNNY   64  44  48 VRB3      29.93F
MONTICELLO     CLOUDY    61  46  59 CALM      29.95F
$$

NYZ026>034-041>043-087-231800-
NORTH


CITY           SKY/WX    TMP DP  RH WIND       PRES   REMARKS
WATERTOWN      MOSUNNY   65  53  65 W10       29.88F
FORT DRUM      NOT AVBL
OGDENSBURG     FAIR      69  48  46 SW13      29.86F
MASSENA        PTSUNNY   67  50  54 SW13G20   29.87F
SARANAC LAKE   MOSUNNY   63  46  54 SW9G16    29.88F
PLATTSBURGH    CLOUDY    65  46  50 SE15      29.88S
$$

NYZ001>004-010>016-019>021-085-231800-
WEST


CITY           SKY/WX    TMP DP  RH WIND       PRES   REMARKS
NIAGARA FALLS  SUNNY     72  48  42 SW14      29.87F
BUFFALO        MOSUNNY   69  48  47 SW13      29.88F
DUNKIRK        SUNNY     69  51  52 NW9       29.88F
JAMESTOWN      SUNNY     64  45  48 SE9       29.91F
WELLSVILLE     PTSUNNY   67  45  45 E5        29.94F
ROCHESTER      PTSUNNY   71  50  47 SW13      29.89F
PENN YAN       PTSUNNY   68  46  45 NW5       29.92F
$$

             KEY
       WCI = WIND CHILL INDEX
       VSB = VISIBILITY
       HX  = HEAT INDEX
$$




USA.gov is the U.S. government's official web portal to all federal, state and local government web resources and services.